When you browse on this site, cookies collect data to enhance your experience and personalize the content and advertising you see.
Visit our Privacy Policy to learn more. By continuing to use the site, you agree to this use of cookies and data.
  • In Hungary
  • List of Countries
  • For 7 days
  • Water Temperature
  • Weather Map
  • News
  • Weather Widgets
  • user-avatar
    Login

    Hourly Weather Canelas

    Today, 22 November, Friday

    Time Temperature Precipitation Wind Pressure Humidity
    00:00 +10°C° 2 mm 8 mps 738 mmHg 90%
    01:00 +10°C° 2 mm 8 mps 737 mmHg 91%
    02:00 +10°C° 2 mm 9 mps 736 mmHg 91%
    03:00 +10°C° 3 mm 8 mps 735 mmHg 93%
    04:00 +10°C° 3 mm 7 mps 734 mmHg 94%
    05:00 +11°C° 3 mm 6 mps 733 mmHg 96%
    06:00 +12°C° 2.1 mm 7 mps 733 mmHg 95%
    07:00 +13°C° 2.1 mm 8 mps 732 mmHg 94%
    08:00 +15°C° 2.1 mm 8 mps 732 mmHg 93%
    09:00 +13°C° 0.5 mm 8 mps 732 mmHg 89%
    10:00 +13°C° 0.5 mm 8 mps 732 mmHg 85%
    11:00 +13°C° 0.5 mm 8 mps 733 mmHg 81%
    12:00 +12°C° 0.5 mm 8 mps 732 mmHg 80%
    13:00 +12°C° 0.5 mm 9 mps 732 mmHg 79%
    14:00 +12°C° 0.5 mm 10 mps 731 mmHg 78%
    15:00 +12°C° 0.9 mm 10 mps 732 mmHg 77%
    16:00 +12°C° 0.9 mm 11 mps 732 mmHg 77%
    17:00 +11°C° 0.9 mm 11 mps 732 mmHg 76%
    18:00 +11°C° 0.7 mm 11 mps 733 mmHg 77%
    19:00 +11°C° 0.7 mm 10 mps 734 mmHg 77%
    20:00 +11°C° 0.7 mm 10 mps 735 mmHg 77%
    21:00 +9°C° 0.2 mm 10 mps 736 mmHg 77%
    22:00 +10°C° 0.2 mm 9 mps 737 mmHg 76%
    23:00 +8°C° 0.2 mm 9 mps 738 mmHg 76%

    Tomorrow, 23 November, Saturday

    Time Temperature Precipitation Wind Pressure Humidity
    00:00 +9°C° 0.4 mm 8 mps 738 mmHg 76%
    01:00 +9°C° 0.4 mm 8 mps 739 mmHg 77%
    02:00 +9°C° 0.4 mm 7 mps 740 mmHg 77%
    03:00 +9°C° 0.3 mm 7 mps 740 mmHg 79%
    04:00 +9°C° 0.3 mm 7 mps 741 mmHg 81%
    05:00 +9°C° 0.3 mm 6 mps 742 mmHg 82%
    06:00 +9°C° 0.2 mm 6 mps 742 mmHg 82%
    07:00 +9°C° 0.2 mm 6 mps 743 mmHg 81%
    08:00 +10°C° 0.2 mm 6 mps 744 mmHg 80%
    09:00 +10°C° 0.1 mm 6 mps 744 mmHg 76%
    10:00 +11°C° 0.1 mm 6 mps 745 mmHg 72%
    11:00 +13°C° 0.1 mm 6 mps 745 mmHg 69%
    12:00 +13°C° 0.1 mm 6 mps 746 mmHg 69%
    13:00 +13°C° 0.1 mm 6 mps 746 mmHg 70%
    14:00 +13°C° 0.1 mm 6 mps 746 mmHg 70%
    15:00 +12°C° 0 mm 5 mps 747 mmHg 74%
    16:00 +10°C° 0 mm 5 mps 747 mmHg 78%
    17:00 +10°C° 0 mm 4 mps 748 mmHg 81%
    18:00 +10°C° 0 mm 3 mps 748 mmHg 82%
    19:00 +10°C° 0 mm 3 mps 749 mmHg 82%
    20:00 +10°C° 0 mm 2 mps 749 mmHg 82%
    21:00 +10°C° 0 mm 2 mps 749 mmHg 81%
    22:00 +11°C° 0 mm 1 mps 750 mmHg 79%
    23:00 +11°C° 0 mm 1 mps 750 mmHg 78%

    Day after tomorrow, 24 November, Sunday

    Time Temperature Precipitation Wind Pressure Humidity
    00:00 +10°C° 0 mm 2 mps 750 mmHg 79%
    01:00 +10°C° 0 mm 2 mps 750 mmHg 80%
    02:00 +10°C° 0 mm 3 mps 750 mmHg 82%
    03:00 +10°C° 0 mm 3 mps 750 mmHg 83%
    04:00 +9°C° 0 mm 3 mps 750 mmHg 85%
    05:00 +9°C° 0 mm 3 mps 750 mmHg 86%
    06:00 +10°C° 0 mm 4 mps 750 mmHg 85%
    07:00 +10°C° 0 mm 4 mps 750 mmHg 84%
    08:00 +11°C° 0 mm 4 mps 750 mmHg 83%
    09:00 +12°C° 0 mm 5 mps 750 mmHg 82%
    10:00 +12°C° 0 mm 5 mps 750 mmHg 81%
    11:00 +13°C° 0 mm 6 mps 750 mmHg 80%
    12:00 +13°C° 0.1 mm 6 mps 750 mmHg 82%
    13:00 +13°C° 0.1 mm 6 mps 749 mmHg 84%
    14:00 +12°C° 0.1 mm 7 mps 749 mmHg 85%
    15:00 +12°C° 0.1 mm 7 mps 749 mmHg 87%
    16:00 +12°C° 0.1 mm 7 mps 749 mmHg 89%
    17:00 +12°C° 0.1 mm 7 mps 749 mmHg 91%
    18:00 +12°C° 0.2 mm 7 mps 749 mmHg 92%
    19:00 +12°C° 0.2 mm 7 mps 748 mmHg 93%
    20:00 +12°C° 0.2 mm 7 mps 748 mmHg 95%
    21:00 +14°C° 0.8 mm 6 mps 748 mmHg 96%
    22:00 +14°C° 0.8 mm 6 mps 748 mmHg 97%
    23:00 +15°C° 0.8 mm 6 mps 748 mmHg 98%

    25 November, Monday

    Time Temperature Precipitation Wind Pressure Humidity
    00:00 +15°C° 0.4 mm 5 mps 748 mmHg 98%
    01:00 +15°C° 0.4 mm 4 mps 748 mmHg 98%
    02:00 +16°C° 0.4 mm 3 mps 748 mmHg 98%
    03:00 +14°C° 0.2 mm 3 mps 748 mmHg 96%
    04:00 +14°C° 0.2 mm 3 mps 749 mmHg 95%
    05:00 +14°C° 0.2 mm 3 mps 749 mmHg 93%
    06:00 +14°C° 0.2 mm 3 mps 749 mmHg 90%
    07:00 +14°C° 0.2 mm 3 mps 750 mmHg 88%
    08:00 +14°C° 0.2 mm 3 mps 750 mmHg 86%
    09:00 +16°C° 0.1 mm 3 mps 751 mmHg 81%
    10:00 +17°C° 0.1 mm 3 mps 751 mmHg 76%
    11:00 +17°C° 0.1 mm 3 mps 751 mmHg 72%
    12:00 +17°C° 0.1 mm 3 mps 751 mmHg 72%
    13:00 +17°C° 0.1 mm 3 mps 751 mmHg 73%
    14:00 +17°C° 0.1 mm 2 mps 751 mmHg 73%
    15:00 +16°C° 0 mm 2 mps 751 mmHg 76%
    16:00 +15°C° 0 mm 2 mps 751 mmHg 80%
    17:00 +14°C° 0 mm 1 mps 751 mmHg 83%
    18:00 +14°C° 0 mm 2 mps 751 mmHg 83%
    19:00 +14°C° 0 mm 2 mps 751 mmHg 83%
    20:00 +14°C° 0 mm 2 mps 752 mmHg 83%
    21:00 +14°C° 0 mm 2 mps 751 mmHg 82%
    22:00 +13°C° 0 mm 3 mps 751 mmHg 82%
    23:00 +13°C° 0 mm 3 mps 751 mmHg 82%

    26 November, Tuesday

    Time Temperature Precipitation Wind Pressure Humidity
    00:00 +13°C° 0 mm 4 mps 750 mmHg 82%
    01:00 +13°C° 0 mm 4 mps 750 mmHg 83%
    02:00 +13°C° 0 mm 4 mps 750 mmHg 83%
    03:00 +13°C° 0.5 mm 5 mps 749 mmHg 85%
    04:00 +13°C° 0.5 mm 5 mps 748 mmHg 86%
    05:00 +13°C° 0.5 mm 6 mps 748 mmHg 88%
    06:00 +12°C° 1.2 mm 7 mps 748 mmHg 89%
    07:00 +12°C° 1.2 mm 7 mps 747 mmHg 90%
    08:00 +12°C° 1.2 mm 8 mps 747 mmHg 92%
    09:00 +14°C° 0.3 mm 7 mps 747 mmHg 93%
    10:00 +14°C° 0.3 mm 7 mps 747 mmHg 94%
    11:00 +15°C° 0.3 mm 6 mps 748 mmHg 94%
    12:00 +15°C° 0.3 mm 5 mps 747 mmHg 93%
    13:00 +15°C° 0.3 mm 5 mps 747 mmHg 92%
    14:00 +15°C° 0.3 mm 4 mps 747 mmHg 90%
    15:00 +15°C° 0.2 mm 4 mps 747 mmHg 92%
    16:00 +14°C° 0.2 mm 3 mps 748 mmHg 93%
    17:00 +14°C° 0.2 mm 3 mps 748 mmHg 95%
    18:00 +13°C° 0.1 mm 3 mps 748 mmHg 94%
    19:00 +14°C° 0.1 mm 2 mps 748 mmHg 93%
    20:00 +14°C° 0.1 mm 2 mps 749 mmHg 93%
    21:00 +14°C° 0.1 mm 2 mps 749 mmHg 91%
    22:00 +14°C° 0.1 mm 2 mps 749 mmHg 89%
    23:00 +14°C° 0.1 mm 2 mps 749 mmHg 87%

    27 November, Wednesday

    Time Temperature Precipitation Wind Pressure Humidity
    00:00 +14°C° 0.1 mm 2 mps 749 mmHg 85%
    01:00 +13°C° 0.1 mm 2 mps 749 mmHg 84%
    02:00 +13°C° 0.1 mm 2 mps 749 mmHg 83%
    03:00 +13°C° 0 mm 2 mps 749 mmHg 84%
    04:00 +13°C° 0 mm 1 mps 749 mmHg 84%
    05:00 +13°C° 0 mm 1 mps 749 mmHg 84%
    06:00 +13°C° 0 mm 1 mps 749 mmHg 83%
    07:00 +13°C° 0 mm 1 mps 749 mmHg 82%
    08:00 +14°C° 0 mm 2 mps 749 mmHg 81%
    09:00 +14°C° 0.1 mm 2 mps 749 mmHg 80%
    10:00 +15°C° 0.1 mm 2 mps 749 mmHg 78%
    11:00 +15°C° 0.1 mm 2 mps 749 mmHg 77%
    12:00 +15°C° 0 mm 2 mps 749 mmHg 75%
    13:00 +15°C° 0 mm 2 mps 749 mmHg 72%
    14:00 +14°C° 0 mm 3 mps 749 mmHg 70%
    15:00 +14°C° 0 mm 2 mps 749 mmHg 74%
    16:00 +14°C° 0 mm 2 mps 749 mmHg 78%
    17:00 +13°C° 0 mm 2 mps 749 mmHg 82%
    18:00 +13°C° 0 mm 2 mps 749 mmHg 84%
    19:00 +12°C° 0 mm 2 mps 749 mmHg 85%
    20:00 +11°C° 0 mm 3 mps 750 mmHg 86%
    21:00 +11°C° 0 mm 3 mps 750 mmHg 86%
    22:00 +11°C° 0 mm 4 mps 749 mmHg 85%
    23:00 +11°C° 0 mm 4 mps 749 mmHg 85%
    Show more